{"data":{"norad_id":67425,"intl_designator":"2026-005X","name":"STARLINK-36447","alt_names":[],"object_type":"PAYLOAD","status":"ACTIVE","operator":null,"country":"US","launch_date":"2026-01-12","launch_site_code":"AFETR","launch_vehicle":null,"mission":null,"orbit_class":"UNKNOWN","rcs_meters":null,"size_class":null,"mass_kg":null,"dimensions":null,"purposes":["comms"],"wikipedia_slug":null,"has_3d_model":false,"image_url":null,"decayed_at":null,"tle_current":{"epoch":"2026-09-19T22:17:39.690240Z","epoch_age_seconds":124737,"freshness":"FRESH","line1":"1 67425U 26005X   26262.92893160  .00010603  00000+0  39412-3 0  9994","line2":"2 67425  42.9984 220.9548 0000723 266.9337  93.1432 15.27592822 38400","mean_motion":15.27592822,"eccentricity":7.23e-5,"inclination_deg":42.9984,"raan_deg":220.9548,"arg_perigee_deg":266.9337,"mean_anomaly_deg":93.1432,"bstar":0.00039412,"rev_number":3840,"period_min":94.265957476462,"perigee_km":482.51464164861,"apogee_km":483.50676360642,"semimajor_km":6861.1477026275,"source":"CELESTRAK","updated_at":"2026-09-20T09:00:43.523915Z"}}}